Time,TemperatureF,DewpointF,PressureIn,WindDirection,WindDirectionDegrees,WindSpeedMPH,WindSpeedGustMPH,Humidity,HourlyPrecipIn,Conditions,Clouds,dailyrainin,SoftwareType,DateUTC
2013-04-26 00:53:00,75.0,-99.9,30.19,ENE,70,14.0,17.0,-999,-99.99,,,-99.99,,2013-04-26 04:53:00,
2013-04-26 01:52:00,75.0,-99.9,30.19,ENE,70,14.0,16.0,-999,-99.99,,,-99.99,,2013-04-26 05:52:00,
2013-04-26 02:52:00,75.0,-99.9,30.16,East,80,13.0,14.0,-999,-99.99,,,-99.99,,2013-04-26 06:52:00,
2013-04-26 03:52:00,74.0,-99.9,30.14,ENE,60,14.0,15.0,-999,-99.99,,,-99.99,,2013-04-26 07:52:00,
2013-04-26 04:52:00,74.0,-99.9,30.13,East,80,11.0,14.0,-999,-99.99,,,-99.99,,2013-04-26 08:52:00,
2013-04-26 05:53:00,73.0,-99.9,30.12,East,80,10.0,13.0,-999,-99.99,,,-99.99,,2013-04-26 09:53:00,
2013-04-26 06:52:00,73.0,-99.9,30.13,ENE,70,10.0,11.0,-999,-99.99,,,-99.99,,2013-04-26 10:52:00,
2013-04-26 07:52:00,74.0,-99.9,30.14,ENE,70,11.0,13.0,-999,-99.99,,,-99.99,,2013-04-26 11:52:00,
2013-04-26 08:52:00,74.0,-99.9,30.17,ENE,60,9.0,11.0,-999,-99.99,,,-99.99,,2013-04-26 12:52:00,
2013-04-26 09:52:00,75.0,-99.9,30.19,ENE,60,10.0,11.0,-999,-99.99,,,-99.99,,2013-04-26 13:52:00,
2013-04-26 10:52:00,76.0,-99.9,30.20,ENE,60,9.0,11.0,-999,-99.99,,,-99.99,,2013-04-26 14:52:00,
2013-04-26 11:53:00,77.0,-99.9,30.22,ESE,110,9.0,11.0,-999,-99.99,,,-99.99,,2013-04-26 15:53:00,
2013-04-26 12:53:00,77.0,-99.9,30.22,ESE,120,8.0,10.0,-999,-99.99,,,-99.99,,2013-04-26 16:53:00,
2013-04-26 13:52:00,78.0,-99.9,30.20,SE,130,11.0,15.0,-999,-99.99,,,-99.99,,2013-04-26 17:52:00,
2013-04-26 14:52:00,78.0,-99.9,30.19,ESE,120,16.0,20.0,-999,-99.99,,,-99.99,,2013-04-26 18:52:00,
2013-04-26 15:52:00,79.0,-99.9,30.17,ESE,120,17.0,21.0,-999,-99.99,,,-99.99,,2013-04-26 19:52:00,
2013-04-26 16:52:00,79.0,-99.9,30.16,ESE,120,18.0,23.0,-999,-99.99,,,-99.99,,2013-04-26 20:52:00,
2013-04-26 17:53:00,79.0,-99.9,30.15,ESE,120,20.0,24.0,-999,-99.99,,,-99.99,,2013-04-26 21:53:00,
2013-04-26 18:52:00,79.0,-99.9,30.15,ESE,110,22.0,25.0,-999,-99.99,,,-99.99,,2013-04-26 22:52:00,
2013-04-26 19:52:00,79.0,-99.9,30.15,East,90,22.0,25.0,-999,-99.99,,,-99.99,,2013-04-26 23:52:00,
2013-04-26 20:52:00,78.0,-99.9,30.15,East,90,21.0,23.0,-999,-99.99,,,-99.99,,2013-04-27 00:52:00,
2013-04-26 23:53:00,75.0,-99.9,30.19,ENE,70,13.0,14.0,-999,-99.99,,,-99.99,,2013-04-27 03:53:00,